Regional Weather Roundup
Issued by NWS

Home | Current Version | Previous Version | Graphics & Text | Print | Product List | Glossary On
Versions: 1 2 3 4 5 6 7 8 9 10 11 12 13 14 15 16 17 18 19 20 21 22 23 24 25 26 27 28 29 30 31 32 33 34 35 36 37 38 39 40 41 42 43 44 45 46 47 48 49 50
000
ASUS43 KDTX 191610
RWRMI
MICHIGAN HOURLY REGIONAL WEATHER ROUNDUP
NATIONAL WEATHER SERVICE DETROIT/PONTIAC MI
1100 AM EST FRI JAN 19 2018

NOTE: "FAIR" INDICATES FEW OR NO CLOUDS BELOW 12,000 FEET WITH NO
SIGNIFICANT WEATHER AND/OR OBSTRUCTION TO VISIBILITY.

MIZ047>049-052>055-059>063-066>070-074>076-081>083-191700-
SOUTHEAST LOWER MICHIGAN

CITY           SKY/WX    TMP DP  RH WIND       PRES   REMARKS
ADRIAN         FAIR      26  17  68 SW9G17    29.97S WCI  17
ALMA           FAIR      32  25  74 SW13G18   29.84F WCI  22
ANN ARBOR      FAIR      28  17  63 S14       29.94R WCI  17
BAD AXE        FAIR      30  21  69 SW12G21   29.84F WCI  20
CARO           FAIR      30  21  67 SW15G21   29.84F WCI  19
DETROIT CITY   FAIR      30  17  58 SW18G26   29.93S WCI  18
DETROIT        FAIR      30  18  60 SW18      29.96R WCI  18
FLINT          FAIR      31  19  61 SW15      29.89S WCI  20
GROSSE ILE     FAIR      30  18  59 SW16G23   29.96S WCI  19
HILLSDALE      FAIR      32  18  55 SW15G21   29.93R WCI  22
HOWELL         FAIR      32  21  64 SW13      29.89R WCI  22

CITY           SKY/WX    TMP DP  RH WIND       PRES   REMARKS
JACKSON        FAIR      31  18  58 SW22G28   29.92R WCI  18
LAMBERTVILLE   FAIR      31  17  54 SW13G21   29.96F WCI  21
LANSING        FAIR      30  20  66 SW16      29.89R WCI  19
LAPEER         FAIR      32  20  61 SW13      29.87F WCI  22
MASON          FAIR      32  17  54 SW9G17    29.91R WCI  24
MONROE         FAIR      29  16  57 SW17G23   29.96R WCI  17
MT. CLEMENS    MOSUNNY   29  14  55 SW14G21   29.91F WCI  18
PONTIAC        PTSUNNY   29  18  63 SW8       29.89R WCI  21
PORT HOPE        N/A     31  21  66 SW10G16   29.82S WCI  22
PORT HURON     FAIR      28  18  64 S10G16    29.92S WCI  19
TRI CITIES     FAIR      31  23  72 SW24      29.82F WCI  17
MIDLAND        FAIR      31  24  74 SW12      29.82F WCI  22
TROY           FAIR      30  18  60 SW13G18   29.94R WCI  20
SAGINAW HB     FAIR      30  21  69 SW18      29.84F WCI  18
$$
MIZ043>046-050>051-056>058-064>065-071>073-077>080-191700-
SOUTHWEST LOWER MICHIGAN

CITY           SKY/WX    TMP DP  RH WIND       PRES   REMARKS
BATTLE CREEK   FAIR      28  18  66 SW17      29.92R WCI  16
BENTON HARBOR  FAIR      33  18  53 SW14G23   29.93S WCI  23
BIG RAPIDS     FAIR      33  25  72 SW16G22   29.79S WCI  23
COLDWATER      FAIR      30  18  61 SW17      29.95R WCI  18
FREMONT        FAIR      34  23  62 SW14G23   29.82S WCI  25
HOLLAND        FAIR      34  25  69 SW18G28   29.88F WCI  23
GRAND RAPIDS   PTSUNNY   31  22  69 SW16      29.87F WCI  20
IONIA          FAIR      32  22  67 SW15G23   29.85F WCI  21
KALAMAZOO      FAIR      32  19  58 MISG      29.93R
LUDINGTON      FAIR      33  28  83 SW15G23   29.78F WCI  23
MARSHALL       FAIR      30  17  59 SW13G20   29.92S WCI  20
MOUNT PLEASANT FAIR      35  26  69 SW14G21   29.80F WCI  25
MUSKEGON       PTSUNNY   36  26  67 SW18      29.85F WCI  26
SOUTH HAVEN    FAIR      33  19  56 SW15G24   29.92R WCI  23
$$
MIZ016>042-191700-
NORTHERN LOWER MICHIGAN

CITY           SKY/WX    TMP DP  RH WIND       PRES   REMARKS
ALPENA         FAIR      31  25  78 SW9       29.74F WCI  23
BEAVER ISLAND  CLOUDY    35  30  82 SW15G22   29.67S WCI  25
BELLAIRE       FAIR      32  27  83 S10G16    29.73F WCI  24
CADILLAC       FAIR      30  26  84 SW17G29   29.73F WCI  18
CHARLEVOIX     FAIR      32  27  81 S8G16     29.73S WCI  25
FRANKFORT      FAIR      35  30  82 SW13G25   29.74S WCI  26
GAYLORD        FAIR      28  25  88 SW10      29.69F WCI  19
GRAYLING       FAIR      29  24  79 S8        29.73F WCI  21
HARBOR SPRINGS FAIR      32  26  77 SW12G17   29.71S WCI  23
HOUGHTON LAKE  FAIR      29  24  82 SW8       29.75F WCI  21
MANISTEE       FAIR      34  27  75 S12       29.76F WCI  25
OSCODA         FAIR      29  21  74 SW12G20   29.78S WCI  19
PELLSTON       FAIR      32  26  78 SW14      29.70F WCI  22
ROGERS CITY    FAIR      31  24  75 SW9       29.72F WCI  23
TRAVERSE CITY  CLOUDY    33  26  75 VRB6G18   29.71F WCI  28
$$
MIZ007>008-015-191700-
EASTERN UPPER MICHIGAN

CITY           SKY/WX    TMP DP  RH WIND       PRES   REMARKS
KINROSS        CLOUDY    33  28  81 SW10      29.66F WCI  25
MACKINAC ISLAN PTSUNNY   32  27  80 SW10      29.68S WCI  24
NEWBERRY       PTSUNNY   31  30  96 S14G21    29.61F WCI  21
S. S. MARIE    CLOUDY    35  29  78 S13       29.66S WCI  26
MUNISING         N/A     29  24  82 S16G25    29.57F WCI  17
$$
MIZ004>006-011>014-085-191700-
CENTRAL UPPER MICHIGAN

CITY           SKY/WX    TMP DP  RH WIND       PRES   REMARKS
MANISTIQUE     FAIR      29  25  85 SW10      29.65S WCI  20
ESCANABA       FAIR      29  22  75 S10       29.64F WCI  20
MENOMINEE      FAIR      28  21  75 SW10      29.67F WCI  19
SAWYER-GWINN   PTSUNNY   25  21  86 SW13      29.57S WCI  13
$$
MIZ001>003-009>011-084-191700-
WESTERN UPPER MICHIGAN

CITY           SKY/WX    TMP DP  RH WIND       PRES   REMARKS
IRON MOUNTAIN  FAIR      26  22  84 SE3       29.58S
HOUGHTON       FAIR      30  22  72 SW6       29.45F WCI  24
COPPER HARBOR    N/A     32  25  75 SW14G22   29.44F WCI  22
IRONWOOD       FAIR      35  24  64 SW14      29.50F WCI  26
$$

ABBREVIATIONS USED IN REMARKS
   TC - TEMPERATURE IN CELSIUS
  WCI - WIND CHILL INDEX
   HX - HEAT INDEX
  VSB - VISIBILITY





USA.gov is the U.S. government's official web portal to all federal, state and local government web resources and services.